| time (UTC) | temp F | wind direction | speed MPH | gust MPH | rain 1hr in | rain 24hr in | rain mn in | humidity % | barometer mb |
| 20260504201544 | 73 | 246 | 4.0 | 8.0 | 0.00 | 0.00 | 0.00 | 31 | 1009.9 |
| 20260504201044 | 72 | 239 | 4.0 | 9.0 | 0.00 | 0.00 | 0.00 | 31 | 1009.9 |
| 20260504200544 | 72 | 236 | 5.0 | 9.0 | 0.00 | 0.00 | 0.00 | 31 | 1010.0 |
| 20260504200044 | 73 | 229 | 5.0 | 9.0 | 0.00 | 0.00 | 0.00 | 31 | 1009.9 |
| 20260504195544 | 73 | 236 | 5.0 | 8.0 | 0.00 | 0.00 | 0.00 | 31 | 1009.9 |
| 20260504195044 | 73 | 238 | 4.0 | 9.0 | 0.00 | 0.00 | 0.00 | 30 | 1009.9 |
| 20260504194544 | 72 | 229 | 4.0 | 9.0 | 0.00 | 0.00 | 0.00 | 31 | 1010.0 |
| 20260504194044 | 73 | 226 | 5.0 | 8.0 | 0.00 | 0.00 | 0.00 | 31 | 1009.9 |
| 20260504193604 | 73 | 217 | 4.0 | 8.0 | 0.00 | 0.00 | 0.00 | 31 | 1010.0 |
| 20260504193044 | 74 | 231 | 4.0 | 7.0 | 0.00 | 0.00 | 0.00 | 31 | 1009.9 |
| 20260504192544 | 74 | 229 | 3.0 | 8.0 | 0.00 | 0.00 | 0.00 | 31 | 1009.9 |
| 20260504192044 | 74 | 226 | 5.0 | 8.0 | 0.00 | 0.00 | 0.00 | 31 | 1010.0 |
| 20260504191544 | 75 | 196 | 3.0 | 6.0 | 0.00 | 0.00 | 0.00 | 31 | 1010.0 |
| 20260504191044 | 75 | 213 | 3.0 | 7.0 | 0.00 | 0.00 | 0.00 | 31 | 1010.1 |
| 20260504190544 | 76 | 184 | 2.0 | 7.0 | 0.00 | 0.00 | 0.00 | 31 | 1010.0 |
| 20260504190044 | 77 | 158 | 2.0 | 7.0 | 0.00 | 0.00 | 0.00 | 31 | 1010.0 |
| 20260504185544 | 77 | 229 | 4.0 | 7.0 | 0.00 | 0.00 | 0.00 | 31 | 1010.1 |
| 20260504185044 | 77 | 211 | 4.0 | 7.0 | 0.00 | 0.00 | 0.00 | 31 | 1010.1 |
| 20260504184604 | 76 | 225 | 4.0 | 6.0 | 0.00 | 0.00 | 0.00 | 32 | 1010.2 |
| 20260504184044 | 76 | 223 | 2.0 | 6.0 | 0.00 | 0.00 | 0.00 | 32 | 1010.1 |
| 20260504183544 | 76 | 207 | 3.0 | 5.0 | 0.00 | 0.00 | 0.00 | 32 | 1010.3 |
| 20260504183045 | 75 | 190 | 2.0 | 5.0 | 0.00 | 0.00 | 0.00 | 33 | 1010.3 |
| 20260504182544 | 75 | 136 | 2.0 | 5.0 | 0.00 | 0.00 | 0.00 | 33 | 1010.2 |
| 20260504182044 | 75 | 185 | 2.0 | 4.0 | 0.00 | 0.00 | 0.00 | 34 | 1010.2 |
| 20260504181544 | 74 | 188 | 2.0 | 4.0 | 0.00 | 0.00 | 0.00 | 34 | 1010.2 |
| 20260504181044 | 73 | 161 | 2.0 | 6.0 | 0.00 | 0.00 | 0.00 | 34 | 1010.2 |
| 20260504180544 | 73 | 216 | 2.0 | 6.0 | 0.00 | 0.00 | 0.00 | 34 | 1010.1 |
| 20260504180044 | 74 | 142 | 2.0 | 4.0 | 0.00 | 0.00 | 0.00 | 34 | 1010.4 |
| 20260504175624 | 74 | 160 | 2.0 | 4.0 | 0.00 | 0.00 | 0.00 | 35 | 1010.2 |
| 20260504175044 | 73 | 183 | 2.0 | 4.0 | 0.00 | 0.00 | 0.00 | 35 | 1010.2 |
| 20260504174544 | 72 | 183 | 3.0 | 4.0 | 0.00 | 0.00 | 0.00 | 35 | 1010.3 |
| 20260504174044 | 72 | 160 | 2.0 | 4.0 | 0.00 | 0.00 | 0.00 | 36 | 1010.3 |
| 20260504173544 | 71 | 142 | 2.0 | 6.0 | 0.00 | 0.00 | 0.00 | 35 | 1010.3 |
| 20260504173104 | 71 | 182 | 2.0 | 6.0 | 0.00 | 0.00 | 0.00 | 35 | 1010.5 |
| 20260504172544 | 71 | 185 | 3.0 | 7.0 | 0.00 | 0.00 | 0.00 | 35 | 1010.6 |
| 20260504172044 | 71 | 125 | 3.0 | 7.0 | 0.00 | 0.00 | 0.00 | 35 | 1010.6 |
| 20260504171544 | 70 | 103 | 4.0 | 7.0 | 0.00 | 0.00 | 0.00 | 34 | 1010.6 |
| 20260504171044 | 70 | 131 | 3.0 | 8.0 | 0.00 | 0.00 | 0.00 | 36 | 1010.8 |
| 20260504170544 | 69 | 115 | 3.0 | 8.0 | 0.00 | 0.00 | 0.00 | 36 | 1010.7 |
| 20260504170104 | 69 | 118 | 3.0 | 6.0 | 0.00 | 0.00 | 0.00 | 36 | 1010.8 |
| 20260504160105 | 65 | 144 | 2.0 | 4.0 | 0.00 | 0.00 | 0.00 | 41 | 1011.3 |
| 20260504151044 | 62 | 99 | 3.0 | 5.0 | 0.00 | 0.00 | 0.00 | 43 | 1011.6 |
| 20260504150544 | 62 | 67 | 1.0 | 5.0 | 0.00 | 0.00 | 0.00 | 43 | 1011.7 |
| 20260504141044 | 59 | 223 | 1.0 | 2.0 | 0.00 | 0.00 | 0.00 | 44 | 1011.7 |
| 20260504140544 | 59 | 318 | 1.0 | 5.0 | 0.00 | 0.00 | 0.00 | 45 | 1011.7 |
| 20260504130604 | 58 | 310 | 2.0 | 3.0 | 0.00 | 0.00 | 0.00 | 46 | 1011.3 |
| 20260504110544 | 58 | 55 | 2.0 | 4.0 | 0.00 | 0.00 | 0.00 | 44 | 1011.2 |
| 20260504100544 | 60 | 346 | 1.0 | 4.0 | 0.00 | 0.00 | 0.00 | 41 | 1011.4 |
| 20260504081544 | 62 | 310 | 1.0 | 2.0 | 0.00 | 0.00 | 0.00 | 38 | 1010.9 |
| 20260504081044 | 62 | 252 | 1.0 | 3.0 | 0.00 | 0.00 | 0.00 | 38 | 1010.9 |
| 20260504080544 | 63 | 318 | 1.0 | 3.0 | 0.00 | 0.00 | 0.00 | 36 | 1011.0 |
| 20260504050543 | 67 | 29 | 2.0 | 4.0 | 0.00 | 0.00 | 0.00 | 32 | 1011.0 |
| 20260504045543 | 67 | 26 | 1.0 | 4.0 | 0.00 | 0.00 | 0.00 | 33 | 1011.1 |
| 20260504045043 | 67 | 37 | 2.0 | 4.0 | 0.00 | 0.00 | 0.00 | 32 | 1011.0 |
| 20260504044543 | 68 | 27 | 1.0 | 7.0 | 0.00 | 0.00 | 0.00 | 32 | 1010.9 |
| 20260504044104 | 68 | 319 | 1.0 | 7.0 | 0.00 | 0.00 | 0.00 | 32 | 1010.9 |
| 20260504043544 | 68 | 35 | 2.0 | 7.0 | 0.00 | 0.00 | 0.00 | 31 | 1010.9 |
| 20260504043043 | 69 | 82 | 2.0 | 11.0 | 0.00 | 0.00 | 0.00 | 31 | 1010.8 |
| 20260504042543 | 69 | 68 | 3.0 | 11.0 | 0.00 | 0.00 | 0.00 | 31 | 1010.8 |
| 20260504042043 | 68 | 78 | 2.0 | 7.0 | 0.00 | 0.00 | 0.00 | 31 | 1010.7 |
| 20260504041544 | 69 | 69 | 3.0 | 6.0 | 0.00 | 0.00 | 0.00 | 32 | 1010.7 |
| 20260504041043 | 69 | 54 | 2.0 | 5.0 | 0.00 | 0.00 | 0.00 | 32 | 1010.7 |
| 20260504040543 | 69 | 64 | 2.0 | 7.0 | 0.00 | 0.00 | 0.00 | 32 | 1010.8 |
| 20260504040043 | 69 | 47 | 2.0 | 7.0 | 0.00 | 0.00 | 0.00 | 31 | 1010.7 |
| 20260504035543 | 69 | 70 | 3.0 | 10.0 | 0.00 | 0.00 | 0.00 | 31 | 1010.6 |
| 20260504035124 | 69 | 56 | 3.0 | 10.0 | 0.00 | 0.00 | 0.00 | 31 | 1010.7 |
| 20260504034043 | 69 | 58 | 2.0 | 4.0 | 0.00 | 0.00 | 0.00 | 31 | 1010.6 |
| 20260504033543 | 69 | 354 | 1.0 | 3.0 | 0.00 | 0.00 | 0.00 | 31 | 1010.7 |
| 20260504033043 | 70 | 37 | 1.0 | 3.0 | 0.00 | 0.00 | 0.00 | 31 | 1010.6 |
| 20260504032604 | 70 | 344 | 1.0 | 3.0 | 0.00 | 0.00 | 0.00 | 31 | 1010.4 |
| 20260504032043 | 70 | 325 | 1.0 | 3.0 | 0.00 | 0.00 | 0.00 | 31 | 1010.5 |
| 20260504031543 | 70 | 25 | 1.0 | 3.0 | 0.00 | 0.00 | 0.00 | 30 | 1010.4 |
| 20260504031043 | 70 | 266 | 1.0 | 3.0 | 0.00 | 0.00 | 0.00 | 30 | 1010.3 |
| 20260504030543 | 70 | 15 | 2.0 | 3.0 | 0.00 | 0.00 | 0.00 | 30 | 1010.3 |
| 20260504030043 | 71 | 354 | 1.0 | 2.0 | 0.00 | 0.00 | 0.00 | 30 | 1010.3 |
| 20260504025543 | 71 | 333 | 1.0 | 3.0 | 0.00 | 0.00 | 0.00 | 31 | 1010.3 |
| 20260504025043 | 71 | 348 | 1.0 | 3.0 | 0.00 | 0.00 | 0.00 | 31 | 1010.3 |
| 20260504024603 | 72 | 27 | 1.0 | 3.0 | 0.00 | 0.00 | 0.00 | 31 | 1010.2 |
| 20260504024044 | 72 | 344 | 2.0 | 3.0 | 0.00 | 0.00 | 0.00 | 30 | 1010.2 |
| 20260504023543 | 72 | 358 | 2.0 | 3.0 | 0.00 | 0.00 | 0.00 | 28 | 1010.3 |
| 20260504023043 | 73 | 325 | 1.0 | 3.0 | 0.00 | 0.00 | 0.00 | 27 | 1010.4 |
| 20260504022543 | 73 | 355 | 1.0 | 4.0 | 0.00 | 0.00 | 0.00 | 27 | 1010.3 |
| 20260504022043 | 73 | 300 | 2.0 | 4.0 | 0.00 | 0.00 | 0.00 | 27 | 1010.3 |
| 20260504021543 | 73 | 306 | 2.0 | 4.0 | 0.00 | 0.00 | 0.00 | 27 | 1010.3 |
| 20260504021043 | 74 | 299 | 1.0 | 3.0 | 0.00 | 0.00 | 0.00 | 27 | 1010.3 |
| 20260504020604 | 74 | 344 | 1.0 | 3.0 | 0.00 | 0.00 | 0.00 | 27 | 1010.3 |
| 20260504020044 | 74 | 305 | 2.0 | 5.0 | 0.00 | 0.00 | 0.00 | 25 | 1010.4 |
| 20260504015543 | 74 | 312 | 2.0 | 5.0 | 0.00 | 0.00 | 0.00 | 25 | 1010.5 |
| 20260504015043 | 74 | 281 | 1.0 | 4.0 | 0.00 | 0.00 | 0.00 | 24 | 1010.3 |
| 20260504014543 | 74 | 204 | 1.0 | 7.0 | 0.00 | 0.00 | 0.00 | 25 | 1010.4 |
| 20260504014103 | 75 | 303 | 1.0 | 7.0 | 0.00 | 0.00 | 0.00 | 25 | 1010.3 |
| 20260504013543 | 75 | 272 | 3.0 | 6.0 | 0.00 | 0.00 | 0.00 | 25 | 1010.4 |
| 20260504013043 | 75 | 270 | 3.0 | 6.0 | 0.00 | 0.00 | 0.00 | 25 | 1010.5 |
| 20260504012543 | 75 | 251 | 2.0 | 10.0 | 0.00 | 0.00 | 0.00 | 25 | 1010.6 |
| 20260504012043 | 75 | 238 | 4.0 | 10.0 | 0.00 | 0.00 | 0.00 | 25 | 1010.4 |
| 20260504011543 | 75 | 268 | 2.0 | 7.0 | 0.00 | 0.00 | 0.00 | 24 | 1010.5 |
| 20260504011103 | 75 | 269 | 3.0 | 8.0 | 0.00 | 0.00 | 0.00 | 25 | 1010.5 |
| 20260504010543 | 75 | 294 | 2.0 | 8.0 | 0.00 | 0.00 | 0.00 | 25 | 1010.5 |
| 20260504005543 | 75 | 304 | 3.0 | 6.0 | 0.00 | 0.00 | 0.00 | 25 | 1010.5 |
| 20260504005043 | 75 | 227 | 2.0 | 7.0 | 0.00 | 0.00 | 0.00 | 26 | 1010.8 |
| 20260504004543 | 75 | 124 | 2.0 | 9.0 | 0.00 | 0.00 | 0.00 | 26 | 1010.8 |
| 20260504004103 | 75 | 283 | 4.0 | 11.0 | 0.00 | 0.00 | 0.00 | 25 | 1010.9 |
| 20260504003543 | 75 | 244 | 4.0 | 11.0 | 0.00 | 0.00 | 0.00 | 26 | 1010.7 |
| 20260504003043 | 75 | 261 | 5.0 | 9.0 | 0.00 | 0.00 | 0.00 | 26 | 1010.8 |
| 20260504002623 | 75 | 275 | 4.0 | 9.0 | 0.00 | 0.00 | 0.00 | 26 | 1011.0 |
| 20260504002043 | 75 | 258 | 2.0 | 12.0 | 0.00 | 0.00 | 0.00 | 26 | 1010.9 |
| 20260504001543 | 75 | 227 | 4.0 | 12.0 | 0.00 | 0.00 | 0.00 | 26 | 1011.0 |
| 20260504001043 | 75 | 242 | 4.0 | 9.0 | 0.00 | 0.00 | 0.00 | 26 | 1011.0 |
| 20260504000543 | 75 | 241 | 4.0 | 9.0 | 0.00 | 0.00 | 0.00 | 26 | 1011.2 |
| 20260504000043 | 75 | 262 | 2.0 | 6.0 | 0.00 | 0.00 | 0.00 | 27 | 1011.2 |
| 20260503235543 | 75 | 207 | 3.0 | 8.0 | 0.00 | 0.00 | 0.00 | 27 | 1011.2 |
| 20260503235043 | 75 | 224 | 2.0 | 8.0 | 0.00 | 0.00 | 0.00 | 27 | 1011.2 |
| 20260503234043 | 74 | 268 | 4.0 | 8.0 | 0.00 | 0.00 | 0.00 | 28 | 1011.4 |
| 20260503233603 | 74 | 263 | 4.0 | 8.0 | 0.00 | 0.00 | 0.00 | 28 | 1011.5 |
| 20260503233043 | 74 | 259 | 5.0 | 10.0 | 0.00 | 0.00 | 0.00 | 28 | 1011.5 |
| 20260503232543 | 75 | 265 | 6.0 | 10.0 | 0.00 | 0.00 | 0.00 | 27 | 1011.6 |
| 20260503232043 | 74 | 249 | 4.0 | 10.0 | 0.00 | 0.00 | 0.00 | 29 | 1011.6 |
| 20260503231543 | 74 | 219 | 4.0 | 10.0 | 0.00 | 0.00 | 0.00 | 29 | 1011.6 |
| 20260503231043 | 74 | 226 | 4.0 | 9.0 | 0.00 | 0.00 | 0.00 | 29 | 1011.7 |
| 20260503230543 | 74 | 239 | 4.0 | 10.0 | 0.00 | 0.00 | 0.00 | 29 | 1011.8 |
| 20260503230043 | 74 | 245 | 3.0 | 10.0 | 0.00 | 0.00 | 0.00 | 30 | 1011.7 |
| 20260503225543 | 74 | 266 | 4.0 | 9.0 | 0.00 | 0.00 | 0.00 | 29 | 1011.7 |
| 20260503225043 | 74 | 224 | 4.0 | 11.0 | 0.00 | 0.00 | 0.00 | 29 | 1012.1 |
| 20260503224543 | 74 | 231 | 3.0 | 11.0 | 0.00 | 0.00 | 0.00 | 30 | 1012.0 |
| 20260503224043 | 73 | 249 | 4.0 | 10.0 | 0.00 | 0.00 | 0.00 | 30 | 1012.0 |
| 20260503223603 | 73 | 267 | 5.0 | 10.0 | 0.00 | 0.00 | 0.00 | 30 | 1012.1 |
| 20260503223043 | 73 | 276 | 4.0 | 11.0 | 0.00 | 0.00 | 0.00 | 30 | 1012.2 |
| 20260503222543 | 73 | 236 | 5.0 | 11.0 | 0.00 | 0.00 | 0.00 | 30 | 1012.4 |
| 20260503222103 | 73 | 245 | 4.0 | 11.0 | 0.00 | 0.00 | 0.00 | 30 | 1012.4 |
| 20260503221624 | 73 | 222 | 5.0 | 11.0 | 0.00 | 0.00 | 0.00 | 30 | 1012.4 |
| 20260503221043 | 73 | 265 | 5.0 | 11.0 | 0.00 | 0.00 | 0.00 | 30 | 1012.3 |
| 20260503220543 | 73 | 240 | 5.0 | 11.0 | 0.00 | 0.00 | 0.00 | 30 | 1012.5 |
| 20260503220043 | 73 | 234 | 5.0 | 11.0 | 0.00 | 0.00 | 0.00 | 30 | 1012.5 |
| 20260503215543 | 73 | 257 | 4.0 | 11.0 | 0.00 | 0.00 | 0.00 | 30 | 1012.6 |
| 20260503215104 | 73 | 258 | 5.0 | 8.0 | 0.00 | 0.00 | 0.00 | 30 | 1012.6 |
| 20260503214543 | 72 | 238 | 4.0 | 9.0 | 0.00 | 0.00 | 0.00 | 30 | 1012.7 |
| 20260503214043 | 72 | 266 | 5.0 | 9.0 | 0.00 | 0.00 | 0.00 | 30 | 1012.6 |
| 20260503213543 | 73 | 239 | 5.0 | 10.0 | 0.00 | 0.00 | 0.00 | 30 | 1012.8 |
| 20260503213043 | 72 | 243 | 4.0 | 11.0 | 0.00 | 0.00 | 0.00 | 31 | 1012.8 |
| 20260503212543 | 72 | 264 | 5.0 | 11.0 | 0.00 | 0.00 | 0.00 | 31 | 1012.8 |
| 20260503212044 | 72 | 239 | 4.0 | 9.0 | 0.00 | 0.00 | 0.00 | 31 | 1012.8 |
| 20260503211543 | 72 | 257 | 4.0 | 11.0 | 0.00 | 0.00 | 0.00 | 31 | 1012.8 |
| 20260503211043 | 72 | 257 | 5.0 | 11.0 | 0.00 | 0.00 | 0.00 | 31 | 1013.0 |
| 20260503210543 | 72 | 242 | 4.0 | 10.0 | 0.00 | 0.00 | 0.00 | 31 | 1013.1 |
| 20260503210103 | 71 | 234 | 4.0 | 11.0 | 0.00 | 0.00 | 0.00 | 30 | 1013.1 |
| 20260503205604 | 71 | 245 | 6.0 | 11.0 | 0.00 | 0.00 | 0.00 | 30 | 1013.2 |
| 20260503205043 | 72 | 242 | 5.0 | 10.0 | 0.00 | 0.00 | 0.00 | 31 | 1013.2 |
| 20260503204604 | 72 | 260 | 5.0 | 10.0 | 0.00 | 0.00 | 0.00 | 31 | 1013.4 |
| 20260503204103 | 71 | 241 | 5.0 | 11.0 | 0.00 | 0.00 | 0.00 | 30 | 1013.3 |
| 20260503203543 | 72 | 250 | 5.0 | 11.0 | 0.00 | 0.00 | 0.00 | 30 | 1013.4 |
| 20260503203043 | 72 | 257 | 4.0 | 8.0 | 0.00 | 0.00 | 0.00 | 30 | 1013.5 |
| 20260503202543 | 72 | 234 | 4.0 | 9.0 | 0.00 | 0.00 | 0.00 | 30 | 1013.5 |
| 20260503202043 | 72 | 223 | 4.0 | 9.0 | 0.00 | 0.00 | 0.00 | 30 | 1013.5 |